DECAYED

OBJECT AH, 43789 (Decayed)

Orbit data source: Space-Track

You're viewing an uncataloged RSO

Recently launched and/or uncataloged RSOs may have evolving metadata. Metadata may include the following, but is not limited to: Owner, Manufacturer, Bus, Motor, and Mission.

OBJECT AH, 43789 was a satellite in LEO that was launched on Mon, 03 Dec 2018 UTC via an FALCON 9 launch vehicle from the Air Force Western Test Range (AFWTR). Unknown objects in Earth's orbit typically refer to objects detected orbiting the Earth but have not yet been identified or cataloged. These objects could be anything from previously untracked satellites, spent rocket stages, debris from satellite collisions, or even natural meteoroids temporarily captured by Earth's gravity. This object's orbit decayed before it could be identified.

Not visible in the next 10 days
Identifier
43789, 2018-099AH
Orbit
Decayed
Country
Flag of TBDTBD
Related business
Flag of USIrvine Public Schools Foundation (US)
Manufacturer
IPSF
Mission
Decayed Amateur Technology
Bus & Motor
CUBESAT 1U, Unknown motor
Mass
1 kg wet, 1 kg dry
Launch date (UTC)
2018-12-03 (8 years ago)
Launch vehicle
FALCON 9
Launch site
Air Force Western Test Range (AFWTR)
Object type
Unknown
Shape & HBR
Box + 2 Pan, 0.1 m
Radar Cross Section
0.019 m², Medium (>0.1 m² and < 1m²)

Expand to show TLE details & history
Last TLE update: 6 months ago

TLE from 6 months ago
0 OBJECT AH
1 43789U 18099AH  26046.91687850  .12348239  25452-5  80964-3 0  9995
2 43789  97.4099 130.1753 0010600 276.9538  83.0556 16.40712868396062
Epoch: 2026-02-15T22:00Z
TLE epoch observation values (Epoch: 2026-02-15T22:00:18.302Z)
Latitude
-0.00001°
Longitude
14.18033°
Altitude
166.327 km
Speed
7.807 km/s
True Right ascension
08h 40m 42s
True Declination
0° 00' 00"
Sunlit
Object was in full shadow at epoch
Visualization orbit readout
Latitude
Unknown
Longitude
Unknown
Altitude
Unknown
Speed
Unknown
Apparent Right ascension
Unknown
Apparent Declination
Unknown
Sunlit
N/A
Visualization observer readout
Local Sidereal Time
20:00:30
Azimuth
Unknown
Elevation
Unknown
Doppler factor
Unknown
Orbital elements
Apogee altitude
167.645 km
Perigee altitude
153.783 km
Semi-major axis
6,538.851 km
Eccentricity
0.00106
Inclination
97.4099°
RAAN
130.1753°
Arg. of periapsis
276.9538°
True anomaly
83.1762°
Mean anomaly
83.0556°
Eccentric anomaly
83.1159°
Mean motion
4.10479 °/min
Orbital period
87.7 mins
BSTAR
0.00080964
Loading maneuver chart data...
Computing Atmospheric mass density...
Loading historical data...
Loading historical data...
Loading historical data...
Loading historical data...
Loading historical data...
Loading historical data...
Loading historical data...

Documentation

Showing up to 5 results
|